Location: Bowden
(51.9167°N, 114.0333°W)
Time: 10:37:00
(UTC+00:00)

Envisat - Pass Details

Date: 11 December 2021
Orbit: 764 x 766 km, 98.2° (Epoch: 28 January)

Event Time Altitude Azimuth Distance (km) Brightness Sun altitude
Rises 11:11:19 0° 28° (NNE) 3,246 6.7 -39.0°
Reaches altitude 10° 11:14:42 10° 51° (NE) 2,313 6.1 -38.5°
Maximum altitude 11:17:33 15° 86° (E) 1,987 5.8 -38.1°
Drops below altitude 10° 11:20:23 10° 120° (ESE) 2,303 5.9 -37.7°
Sets 11:23:44 0° 143° (SE) 3,222 6.5 -37.2°
